Wind_Speed
3 4 4 5 6 6 6 6 6 7 7 7 7 7 8 8 8 9 9 9 9 9 9 9 10 10 9 9 9 8 8 8 8 8 8 8 7 7 6 6 6 7 8
4 5 6 6 7 7 6 6 6 6 6 5 5 5 6 6 7 7 7 7 8 8 8 8 8 8 8 8 7 7 6 6 7 7 6 6 6 6 6 6 6 6 7
6 6 8 8 8 8 8 7 6 6 5 5 5 5 5 5 5 6 6 6 7 7 7 7 7 7 6 6 6 6 5 5 5 5 5 5 5 5 5 6 6 6 7
8 8 10 10 10 10 9 8 7 6 6 5 5 5 5 5 6 6 6 7 7 7 6 6 6 6 5 5 4 4 4 3 3 3 3 3 3 4 4 5 5 6 7
10 11 12 12 12 11 10 9 8 8 7 7 7 7 7 7 8 8 8 8 8 8 7 7 7 6 6 5 5 4 3 2 2 1 1 1 2 3 4 4 5 5 6
12 12 13 13 13 12 12 11 10 9 9 9 9 9 9 10 10 11 11 11 10 10 10 9 9 8 8 7 7 6 5 4 3 2 1 1 2 2 3 4 4 4 5
13 14 14 14 14 13 13 12 11 11 11 11 12 12 12 13 13 13 13 13 13 13 13 12 12 11 10 9 9 8 7 7 6 5 4 4 3 3 3 4 4 4 5
13 15 15 15 14 14 13 13 13 13 14 14 15 15 15 16 16 16 16 16 16 16 15 15 15 15 14 13 12 11 10 10 9 8 7 7 6 6 6 5 5 5 5
13 14 15 16 15 15 14 15 15 16 16 17 17 17 17 18 18 18 18 19 19 18 18 18 18 18 17 16 15 14 14 13 13 12 11 10 10 9 9 8 7 7 7
14 15 16 17 17 17 17 18 18 19 19 19 19 19 19 19 20 20 20 20 20 20 20 20 20 20 20 19 18 17 17 17 16 16 15 14 13 13 12 11 11 10 9
15 17 18 19 19 20 20 20 21 21 21 21 21 21 21 21 21 21 21 21 21 21 21 21 21 21 21 21 20 19 19 19 19 19 19 18 17 16 16 15 14 14 13
18 19 20 21 22 23 24 24 24 23 24 24 23 23 22 23 23 23 23 22 21 21 21 21 21 21 22 22 22 21 21 21 21 21 21 21 20 20 19 19 18 17 16
20 21 22 23 25 26 27 27 26 25 25 24 25 24 24 24 24 24 24 23 22 21 21 21 21 21 22 22 23 23 22 21 21 21 22 23 23 22 22 22 22 21 20
23 23 24 26 28 29 29 29 29 27 27 26 25 26 26 25 26 25 25 23 23 22 22 21 21 22 22 22 23 23 22 21 22 22 23 23 24 24 24 24 24 24 24
25 25 26 28 30 32 32 31 31 30 29 29 29 28 27 27 26 26 26 24 23 23 22 23 22 21 21 21 21 22 21 20 20 21 22 22 23 24 25 26 25 25 27
27 28 30 32 32 32 33 33 34 34 33 32 30 29 28 28 28 27 25 24 24 23 23 22 22 21 21 21 21 21 21 20 19 21 21 22 22 23 25 26 27 27 27
30 32 33 34 35 34 35 38 38 37 36 34 32 30 29 29 28 24 22 23 23 23 22 22 22 22 22 21 20 20 20 20 20 19 19 19 20 21 23 24 26 26 27
32 34 35 36 37 37 38 39 40 39 37 34 32 30 29 27 25 23 22 23 23 23 22 21 21 21 20 20 19 19 19 20 19 19 18 18 19 19 20 22 23 25 27
34 35 38 38 35 35 37 37 39 39 38 36 32 29 27 25 24 22 21 22 22 22 21 21 20 20 19 19 19 19 19 19 19 19 18 18 19 19 19 21 21 21 23
35 36 37 36 36 36 37 36 36 36 34 32 30 27 27 25 24 23 22 22 21 21 20 20 19 19 19 19 19 18 18 18 18 18 17 17 18 18 18 19 19 20 21
37 38 38 37 36 36 35 32 33 32 29 28 27 26 24 23 23 23 21 21 21 20 20 20 20 19 19 19 18 18 18 18 17 17 16 16 16 17 17 17 18 19 20
39 38 38 37 36 34 34 31 30 26 26 26 24 23 22 23 24 23 22 21 21 21 21 21 20 20 20 19 19 19 19 19 18 17 16 16 15 16 16 16 17 18 18
38 38 39 37 34 33 33 31 28 26 25 23 22 22 24 25 25 25 24 23 22 23 23 22 22 22 22 22 21 21 21 21 20 19 18 17 16 16 16 16 16 16 17
35 35 36 36 35 34 33 32 30 27 25 25 25 26 27 27 27 27 27 26 25 25 24 24 25 24 25 25 24 23 23 23 22 22 21 19 18 17 17 17 16 16 17
34 34 35 36 37 37 35 34 33 32 30 30 29 30 31 32 32 31 30 30 29 29 28 28 28 28 27 27 27 26 26 25 25 25 23 22 21 20 19 18 18 17 17
33 33 35 37 38 37 38 39 38 37 36 36 36 36 36 37 36 36 36 35 34 34 33 32 32 32 31 30 29 29 29 28 28 28 27 26 24 23 22 21 20 19 18
Wind_Direction
329 337 340 337 339 349 1 12 21 30 35 38 40 40 38 35 34 34 33 33 34 36 38 40 42 45 47 49 51 53 57 60 66 72 78 86 95 104 110 116 121 126 129
300 311 318 320 323 330 339 348 357 5 11 16 20 23 23 22 20 19 19 19 21 24 28 31 33 36 39 43 45 49 53 56 60 68 76 84 94 103 113 122 130 135 138
290 301 308 309 312 317 323 328 333 339 345 348 351 354 356 358 358 357 358 359 1 5 10 14 17 21 24 28 33 38 45 51 59 67 76 88 99 110 118 128 138 146 146
291 298 302 302 305 308 311 314 317 319 322 323 323 324 327 328 329 331 333 337 340 342 345 350 352 355 359 1 5 11 23 36 49 69 79 96 113 126 131 135 142 150 153
295 297 298 298 300 302 303 304 304 304 304 304 304 305 308 309 311 313 315 318 320 322 323 323 326 328 329 330 329 329 335 347 3 51 103 117 132 150 152 149 148 152 158
296 294 293 293 296 298 298 297 295 294 294 295 296 296 298 300 303 304 306 307 308 308 309 308 308 309 311 310 307 302 300 299 296 278 248 222 200 188 181 174 168 166 168
296 293 292 292 293 294 294 293 290 289 290 291 291 291 291 292 294 295 297 297 298 299 299 299 298 297 298 298 294 290 286 283 279 269 257 247 235 224 213 202 197 189 183
297 294 292 291 291 290 289 288 287 287 288 288 287 287 288 288 289 290 291 291 292 292 292 292 291 290 289 288 285 280 277 276 274 268 260 253 247 240 235 229 219 213 204
296 294 294 292 290 287 284 284 284 285 285 285 285 285 286 286 287 288 288 288 288 288 288 287 286 285 284 282 280 276 271 270 268 267 262 257 251 247 243 240 233 225 220
296 294 294 294 290 287 285 284 283 284 285 284 283 284 285 286 287 288 288 287 287 286 286 284 282 282 281 280 278 274 269 266 266 265 262 258 254 250 245 243 240 233 227
295 294 293 292 291 288 286 285 284 284 285 284 283 284 286 287 288 288 288 288 288 287 286 284 281 279 278 278 276 275 271 266 263 263 261 258 255 251 247 244 242 239 233
293 293 292 291 289 287 285 283 282 282 283 284 281 281 284 285 287 287 287 287 288 287 287 285 284 281 277 276 274 272 272 269 264 260 257 256 254 252 248 245 243 240 236
293 292 290 288 288 287 285 281 279 281 282 281 278 279 281 283 283 284 284 286 287 288 288 286 284 282 278 275 272 270 269 269 266 262 257 255 253 251 249 246 243 241 239
296 292 288 289 288 288 285 280 277 279 278 276 276 277 278 279 280 281 282 284 285 286 286 284 282 280 278 275 273 270 267 267 266 264 262 258 253 251 248 246 246 243 239
293 292 291 291 290 287 283 281 277 273 274 272 271 272 273 275 277 279 279 281 282 282 283 283 280 278 278 275 273 271 267 267 267 266 264 260 254 250 250 248 247 246 240
296 294 296 295 291 288 283 277 275 269 269 269 269 267 269 272 274 277 276 278 280 281 280 281 281 278 276 275 272 269 267 264 265 267 264 259 256 253 250 248 247 246 243
297 296 296 295 291 287 284 282 277 268 264 264 264 264 266 269 270 273 277 280 281 280 279 278 277 275 273 273 271 268 266 264 263 265 265 264 261 257 252 250 249 245 244
294 295 294 293 292 289 285 282 279 272 265 263 264 262 263 265 270 276 280 280 280 279 276 275 273 270 268 267 266 264 263 263 263 262 264 265 264 260 255 252 250 248 246
290 290 291 290 290 287 285 282 281 278 270 264 263 261 263 269 272 276 279 282 280 276 273 271 270 266 264 263 262 262 262 262 260 260 263 264 262 261 258 256 252 249 247
287 289 293 294 293 289 288 286 288 283 274 268 265 261 265 269 273 276 279 279 279 275 272 269 266 262 260 260 259 259 258 259 259 259 261 261 259 259 257 255 253 251 248
288 289 292 294 295 291 290 288 289 283 276 273 267 267 268 268 273 279 282 277 275 274 271 267 265 260 258 256 256 255 254 255 255 257 259 260 258 257 256 256 256 253 249
290 288 289 292 293 292 292 289 288 284 281 274 268 266 268 272 276 278 278 276 273 272 269 266 261 257 256 255 255 253 252 251 252 254 257 260 261 259 256 256 257 254 252
288 287 288 291 290 291 291 289 289 289 281 275 273 269 269 272 273 274 275 275 272 270 267 264 259 255 254 254 253 252 251 250 250 252 254 257 260 261 258 256 258 254 253
285 283 285 286 286 287 289 289 289 286 282 280 277 274 273 273 273 274 275 273 271 270 267 263 260 256 254 252 252 251 251 251 250 252 253 254 256 258 259 258 256 256 256
288 287 286 285 285 286 286 287 288 287 284 282 279 277 275 274 273 273 272 271 269 268 267 265 262 257 255 253 252 251 250 249 249 251 253 254 254 256 257 258 258 257 258
293 292 290 288 287 285 285 285 285 285 284 282 278 276 275 273 272 271 270 268 267 266 265 264 261 258 257 255 254 252 250 248 247 248 251 253 255 255 256 256 257 258 259
Height
5906 5906 5905 5905 5904 5902 5901 5900 5899 5898 5897 5897 5896 5895 5895 5895 5894 5894 5894 5894 5893 5893 5893 5892 5892 5891 5891 5890 5889 5889 5889 5888 5888 5887 5887 5886 5886 5886 5887 5887 5887 5888 5888
5906 5906 5905 5904 5903 5902 5900 5899 5898 5897 5897 5896 5896 5895 5895 5894 5894 5894 5893 5893 5893 5893 5892 5892 5892 5891 5891 5890 5890 5889 5889 5889 5888 5888 5888 5888 5887 5887 5888 5888 5888 5889 5889
5906 5905 5904 5904 5903 5901 5900 5899 5898 5896 5896 5895 5895 5894 5894 5894 5893 5893 5893 5892 5892 5892 5892 5891 5891 5891 5891 5890 5890 5890 5889 5889 5889 5889 5889 5888 5888 5888 5888 5889 5889 5890 5890
5905 5904 5904 5903 5902 5901 5899 5898 5897 5896 5895 5894 5894 5893 5893 5892 5892 5892 5892 5891 5891 5891 5891 5891 5891 5890 5890 5890 5890 5890 5890 5889 5889 5889 5889 5889 5889 5889 5889 5889 5889 5890 5890
5904 5903 5902 5902 5900 5899 5898 5897 5896 5895 5894 5893 5892 5892 5892 5891 5891 5891 5890 5890 5890 5890 5890 5890 5890 5890 5890 5890 5889 5889 5889 5889 5889 5889 5889 5889 5889 5889 5889 5889 5889 5890 5890
5903 5902 5901 5900 5899 5898 5896 5895 5894 5894 5893 5892 5891 5891 5890 5890 5889 5889 5888 5888 5888 5888 5888 5888 5888 5888 5888 5888 5888 5888 5888 5888 5888 5888 5888 5888 5889 5889 5889 5889 5889 5889 5890
5901 5900 5900 5898 5897 5896 5895 5894 5893 5892 5891 5890 5889 5889 5888 5888 5887 5886 5886 5886 5885 5885 5885 5885 5885 5886 5886 5886 5886 5886 5886 5886 5887 5887 5887 5887 5887 5888 5888 5888 5888 5889 5889
5900 5899 5898 5896 5895 5894 5893 5892 5891 5890 5889 5888 5887 5886 5886 5885 5884 5884 5883 5883 5883 5882 5882 5882 5882 5882 5882 5883 5883 5883 5883 5884 5884 5884 5885 5885 5886 5886 5886 5887 5887 5888 5888
5898 5897 5896 5894 5893 5892 5891 5890 5889 5888 5886 5885 5884 5883 5883 5882 5881 5881 5880 5880 5879 5879 5879 5878 5878 5878 5878 5879 5879 5879 5880 5880 5881 5881 5882 5882 5883 5884 5884 5885 5886 5886 5887
5896 5895 5894 5892 5891 5890 5888 5887 5886 5884 5883 5882 5881 5880 5879 5878 5878 5877 5877 5876 5875 5875 5875 5874 5874 5874 5874 5874 5875 5875 5876 5876 5877 5877 5878 5879 5880 5881 5881 5882 5883 5884 5885
5893 5892 5891 5890 5888 5887 5885 5884 5882 5881 5880 5878 5877 5876 5875 5874 5874 5873 5872 5871 5871 5870 5870 5869 5869 5869 5869 5869 5870 5870 5871 5871 5872 5873 5874 5875 5875 5877 5878 5879 5880 5882 5883
5890 5889 5887 5886 5884 5883 5881 5879 5878 5877 5875 5874 5872 5871 5871 5870 5869 5868 5867 5867 5866 5865 5865 5864 5864 5864 5864 5864 5864 5865 5865 5866 5867 5868 5869 5870 5871 5872 5873 5875 5876 5878 5880
5886 5884 5883 5881 5880 5878 5876 5874 5873 5871 5870 5868 5867 5865 5865 5864 5863 5863 5862 5861 5861 5860 5860 5859 5859 5858 5859 5859 5859 5859 5860 5860 5861 5862 5863 5864 5866 5867 5869 5870 5872 5873 5875
5881 5879 5878 5876 5874 5872 5870 5869 5867 5866 5864 5862 5861 5860 5859 5858 5858 5857 5856 5855 5855 5855 5854 5854 5853 5853 5854 5854 5853 5853 5854 5855 5855 5856 5857 5858 5860 5861 5863 5865 5866 5868 5870
5875 5874 5872 5870 5868 5865 5864 5862 5861 5859 5857 5856 5855 5854 5853 5852 5851 5850 5850 5849 5849 5849 5848 5848 5848 5848 5848 5848 5848 5848 5849 5849 5850 5850 5851 5852 5854 5855 5857 5859 5860 5862 5864
5869 5867 5865 5863 5860 5858 5856 5854 5853 5851 5849 5848 5847 5846 5845 5845 5845 5844 5844 5844 5843 5843 5843 5842 5842 5842 5842 5842 5843 5843 5844 5844 5845 5846 5846 5847 5848 5849 5851 5853 5854 5856 5858
5863 5861 5858 5855 5852 5849 5847 5845 5843 5840 5839 5838 5838 5837 5837 5837 5838 5837 5837 5837 5837 5837 5837 5836 5836 5836 5836 5837 5837 5838 5839 5839 5840 5841 5841 5841 5842 5844 5845 5846 5848 5850 5852
5857 5854 5851 5848 5844 5841 5837 5834 5833 5831 5830 5829 5829 5829 5829 5828 5830 5830 5830 5831 5831 5830 5831 5831 5831 5831 5831 5832 5832 5833 5834 5834 5835 5836 5837 5837 5837 5838 5839 5841 5842 5844 5846
5849 5846 5843 5839 5835 5832 5828 5825 5823 5822 5822 5821 5821 5821 5822 5821 5823 5823 5824 5824 5825 5825 5825 5825 5825 5826 5826 5827 5827 5828 5829 5829 5830 5832 5832 5833 5833 5833 5834 5836 5837 5839 5840
5841 5838 5835 5831 5828 5825 5821 5818 5815 5813 5811 5811 5813 5815 5815 5815 5817 5818 5817 5818 5819 5819 5819 5820 5820 5820 5821 5822 5823 5823 5824 5825 5826 5827 5828 5828 5829 5829 5830 5831 5832 5834 5835
5833 5829 5827 5824 5820 5817 5813 5810 5808 5805 5803 5805 5807 5808 5808 5808 5811 5811 5811 5812 5812 5813 5813 5813 5814 5814 5815 5817 5818 5819 5819 5820 5821 5822 5823 5824 5824 5825 5826 5827 5828 5829 5830
5825 5822 5819 5816 5813 5810 5807 5803 5801 5799 5798 5799 5800 5801 5801 5803 5804 5805 5805 5806 5806 5807 5807 5807 5807 5809 5810 5811 5812 5813 5815 5816 5817 5818 5819 5819 5820 5821 5822 5822 5823 5824 5825
5816 5814 5812 5808 5805 5803 5799 5797 5795 5793 5792 5793 5793 5793 5795 5796 5796 5797 5798 5799 5800 5800 5800 5800 5801 5802 5804 5805 5806 5808 5809 5811 5812 5813 5814 5815 5815 5816 5817 5818 5819 5819 5821
5808 5806 5804 5801 5799 5796 5793 5791 5789 5788 5787 5787 5787 5788 5788 5788 5788 5789 5790 5791 5792 5793 5793 5794 5795 5795 5797 5799 5800 5802 5803 5804 5806 5807 5808 5809 5811 5812 5813 5814 5815 5815 5816
5801 5798 5796 5793 5791 5788 5786 5784 5783 5781 5780 5780 5780 5780 5781 5780 5780 5781 5782 5782 5783 5784 5785 5786 5787 5788 5789 5791 5793 5795 5796 5798 5799 5801 5802 5804 5805 5807 5808 5809 5810 5811 5812
5793 5790 5787 5784 5781 5779 5777 5775 5774 5772 5771 5771 5770 5770 5770 5770 5770 5770 5772 5773 5774 5775 5776 5777 5778 5779 5781 5782 5784 5787 5789 5790 5792 5794 5796 5797 5799 5801 5802 5803 5805 5806 5807